[[[{"header":{"parameterUnit":"kt","parameterCategory":2,"dx":1,"dy":1,"la1":30.253999710083008,"la2":30.299108505249023,"lo1":-89.0895004272461,"lo2":-89.04439544677734,"nx":28,"ny":28,"refTime":"2022-10-18T21:00:00:Z","depth":0,"parameterNumber":1,"parameterNumberName":"U-component_of_WINDS"},"data":[3.8612,3.8641,3.8641,3.8674,3.8679,3.8701,3.8709,3.872,3.8728,3.8755,3.8771,3.8773,3.878,3.8799,3.8816,3.8816,3.8823,3.8835,3.8834,3.8781,3.8774,3.8767,3.8759,3.8837,3.8837,3.8888,3.8888,3.8889,3.8579,3.8584,3.8601,3.8617,3.8632,3.8621,3.8632,3.8645,3.8666,3.8675,3.869,3.8713,3.8731,3.8734,3.8752,3.8766,3.8761,3.877,3.8769,3.877,3.8714,3.8707,3.8774,3.8774,3.8774,3.8774,3.8774,3.8774,3.8518,3.8535,3.8543,3.8561,3.8569,3.8579,3.8595,3.8597,3.8613,3.863,3.8625,3.8648,3.8656,3.8675,3.8681,3.8699,3.8687,3.8697,3.8699,3.8702,3.8705,3.8634,3.8701,3.8701,3.8701,3.8701,3.8701,0,3.8473,3.8471,3.8486,3.8501,3.8514,3.8525,3.8535,3.8545,3.8538,3.8552,3.8571,3.8582,3.8603,3.862,3.8635,3.8638,3.8626,3.8624,3.8631,3.8634,3.8636,3.8636,3.8545,3.8622,3.8621,3.8621,3.862,3.862,3.8412,3.843,3.8437,3.8448,3.8453,3.847,3.848,3.8472,3.8483,3.8494,3.8509,3.8526,3.8539,3.8569,3.8569,3.8584,3.8578,3.8608,3.858,3.8583,3.8578,3.8577,3.858,3.8613,3.8614,3.8614,3.8615,0,3.8377,3.8374,3.8402,3.8406,3.8408,3.8428,3.8431,3.8447,3.8446,3.8467,3.8472,3.8469,3.8487,3.8481,3.85,3.8497,3.8532,3.8526,3.853,3.8528,3.8555,3.8552,3.864,3.8652,3.8571,3.8572,3.8573,0,3.8323,3.8348,3.8341,3.8357,3.8385,3.8375,3.8403,3.8403,3.8409,3.8425,3.841,3.8427,3.8416,3.8432,3.8426,3.8454,3.8457,3.8456,3.8454,3.8457,3.8457,3.8461,3.8457,3.8448,3.8447,3.8447,3.8447,0,3.8269,3.8293,3.832,3.8324,3.8329,3.8342,3.8345,3.8349,3.8358,3.8369,3.8375,3.8388,3.8394,3.8405,3.8398,3.8379,3.8431,3.8403,3.8429,3.843,3.8439,3.8439,3.852,3.8446,3.8446,3.8446,3.8446,0,3.8223,3.8234,3.8273,3.8277,3.8283,3.83,3.8312,3.8325,3.8331,3.8328,3.8336,3.8324,3.8346,3.832,3.8351,3.8329,3.8338,3.8338,3.834,3.834,3.831,3.8356,3.8434,3.8442,3.8343,3.8342,3.8342,0,3.8164,3.82,3.8191,3.8228,3.8243,3.8225,3.8244,3.8249,3.8246,3.826,3.8257,3.8271,3.825,3.8253,3.827,3.8267,3.8296,3.8263,3.8283,3.8284,3.8282,3.8354,3.8366,3.8418,3.833,3.8332,3.8332,0,3.8116,3.8119,3.8126,3.8131,3.8134,3.8146,3.8168,3.818,3.8189,3.8195,3.8213,3.8233,3.8218,3.8223,3.8213,3.8231,3.8276,3.8211,3.8211,3.8224,3.8324,3.8336,3.8345,3.8266,3.8268,3.8269,3.8324,0,3.8049,3.8065,3.8083,3.8091,3.8099,3.8121,3.8112,3.8122,3.8112,3.8107,3.8133,3.8133,3.8143,3.815,3.8139,3.8181,3.8173,3.8155,3.8127,3.8175,3.8193,3.82,3.8102,3.8101,3.81,3.81,0,0,3.7993,3.8015,3.8002,3.8021,3.8027,3.8004,3.8028,3.8031,3.8037,3.8042,3.8026,3.8053,3.8053,3.8084,3.8098,3.8102,3.8109,3.8091,3.8152,3.8158,3.8164,3.8183,3.8191,3.8099,3.8098,3.8098,3.8098,0,3.7965,3.7966,3.7988,3.7991,3.7994,3.7987,3.7993,3.7991,3.7989,3.8012,3.7993,3.8006,3.8026,3.8029,3.8033,3.8088,3.8071,3.8092,3.8125,3.8145,3.8152,3.8158,3.8179,3.8186,3.8096,3.8096,3.8096,0,3.7916,3.7915,3.7924,3.7935,3.7936,3.7951,3.7921,3.7937,3.7949,3.7921,3.7944,3.7942,3.7944,3.7974,3.7986,3.7972,3.8038,3.8014,3.8019,3.8019,3.8038,3.8046,3.8054,3.7956,3.7956,3.7956,0,0,3.7894,3.7908,3.7902,3.7928,3.793,3.792,3.7926,3.7916,3.7918,3.7918,3.7914,3.7917,3.7929,3.7936,3.7946,3.798,3.798,3.7998,3.8004,3.801,3.8013,3.8033,3.8042,3.7954,3.7954,3.7954,0,0,3.7883,3.7877,3.7866,3.7894,3.7898,3.7892,3.7909,3.7895,3.7902,3.7898,3.7881,3.788,3.7908,3.7906,3.7885,3.7936,3.7909,3.7913,3.7936,3.7944,3.795,3.795,3.7851,0,0,0,0,0,3.7849,3.7878,3.7868,3.7871,3.7882,3.7898,3.79,3.7886,3.7868,3.7881,3.7876,3.7857,3.7891,3.7873,3.7876,3.7898,3.7933,3.7936,3.794,3.7977,3.7986,3.7993,0,0,0,0,0,0,3.785,3.7853,3.7867,3.7863,3.7866,3.7897,3.7863,3.786,3.7866,3.7862,3.7859,3.7857,3.7845,3.787,3.7873,3.7895,3.785,3.7934,3.7937,3.794,3.798,3.7987,3.7993,0,0,0,0,0,3.785,3.7854,3.7875,3.7863,3.7865,3.7853,3.7862,3.7859,3.7863,3.7853,3.7851,3.7852,3.7846,3.7847,3.7872,3.7894,3.7848,3.7849,3.7936,3.7939,3.7941,3.7983,0,0,0,0,0,0,3.7851,3.7851,3.7875,3.7875,3.785,3.7851,3.7851,3.7858,3.7854,3.7852,3.7846,3.7843,3.7847,3.7848,3.7849,3.7894,3.7846,3.7847,3.7848,3.7938,3.794,3.7942,0,0,0,0,0,0,3.7849,3.7851,3.7875,3.786,3.7858,3.785,3.7849,3.7867,3.7854,3.7846,3.7843,3.7844,3.7844,3.7848,3.7849,3.7878,3.7845,3.7846,3.7847,3.7847,3.794,3.7941,0,0,0,0,0,0,3.785,3.7852,3.786,3.7858,3.7857,3.7857,3.7865,3.7877,3.7842,3.7847,3.7838,3.7836,3.7846,3.7846,3.785,3.7878,3.7878,3.7845,3.7845,3.7846,3.7846,0,0,0,0,0,0,0,3.785,3.7842,3.7875,3.7857,3.7856,3.7877,3.7877,3.7877,3.7841,3.784,3.7838,3.7837,3.7838,3.7839,3.784,3.7878,0,0,3.7844,3.7845,0,0,0,0,0,0,0,0,3.7841,3.7842,3.7875,3.7875,3.7875,3.7877,3.7877,3.7877,3.7841,3.784,3.7839,3.7838,3.7838,3.7839,3.784,0,0,0,0,0,0,0,0,0,0,0,0,0,0,0,3.7875,3.7875,0,3.7877,3.7877,3.7877,3.7841,3.784,3.7839,3.7838,3.7838,3.7839,3.784,0,0,0,0,0,0,0,0,0,0,0,0,0,0,0,0,0,0,0,0,0,0,0,0,0,0,0,0,0,0,0,0,0,0,0,0,0,0,0,0,0,0,0,0,0,0,0,0,0,0,0,0,0,0,0,0,0,0,0,0,0,0,0,0,0,0,0,0,0]}],[{"header":{"parameterUnit":"kt","parameterCategory":2,"dx":1,"dy":1,"la1":30.253999710083008,"la2":30.299108505249023,"lo1":-89.0895004272461,"lo2":-89.04439544677734,"nx":28,"ny":28,"refTime":"2022-10-18T21:00:00:Z","depth":0,"parameterNumber":2,"parameterNumberName":"V-component_of_WINDS"},"data":[-14.7625,-14.7798,-14.7829,-14.8038,-14.8099,-14.8246,-14.8307,-14.8388,-14.8459,-14.8634,-14.8739,-14.8782,-14.8859,-14.8988,-14.91,-14.9115,-14.916,-14.9202,-14.9213,-14.9003,-14.8975,-14.8949,-14.8911,-14.9212,-14.9212,-14.9426,-14.9428,-14.943,-14.7474,-14.7538,-14.7657,-14.7792,-14.7894,-14.7872,-14.7975,-14.806,-14.819,-14.8278,-14.8382,-14.8536,-14.866,-14.8723,-14.8845,-14.8923,-14.8916,-14.8954,-14.8947,-14.896,-14.8737,-14.8697,-14.8957,-14.8957,-14.8957,-14.8957,-14.8957,-14.8957,-14.7206,-14.7308,-14.7407,-14.7536,-14.7611,-14.7699,-14.78,-14.7852,-14.7965,-14.8099,-14.8106,-14.8252,-14.8341,-14.8498,-14.8556,-14.8667,-14.863,-14.8677,-14.8688,-14.87,-14.871,-14.84,-14.8689,-14.8688,-14.8687,-14.8687,-14.8686,0,-14.7018,-14.7036,-14.7151,-14.7276,-14.737,-14.7468,-14.7561,-14.7623,-14.7662,-14.7754,-14.7888,-14.7968,-14.8126,-14.8252,-14.8369,-14.8419,-14.8399,-14.8399,-14.8431,-14.8431,-14.8416,-14.8426,-14.8062,-14.8389,-14.8387,-14.8385,-14.8384,-14.8383,-14.6749,-14.6864,-14.6979,-14.7056,-14.7114,-14.7236,-14.7314,-14.734,-14.7421,-14.7536,-14.7622,-14.7749,-14.7852,-14.8057,-14.8108,-14.8224,-14.8214,-14.8337,-14.8231,-14.8227,-14.8216,-14.821,-14.8221,-14.8357,-14.836,-14.8363,-14.8365,0,-14.6596,-14.664,-14.6825,-14.6926,-14.6954,-14.7072,-14.7156,-14.7256,-14.7292,-14.7434,-14.7468,-14.7524,-14.7651,-14.7683,-14.7833,-14.7845,-14.8036,-14.8024,-14.8007,-14.8006,-14.8119,-14.8108,-14.8481,-14.8531,-14.8219,-14.8222,-14.8225,0,-14.6383,-14.6531,-14.6588,-14.6693,-14.6859,-14.6881,-14.7043,-14.709,-14.7167,-14.7279,-14.7263,-14.7368,-14.7392,-14.75,-14.7518,-14.7679,-14.7706,-14.7725,-14.7727,-14.7726,-14.7724,-14.7765,-14.7751,-14.7728,-14.7726,-14.7725,-14.7723,0,-14.6137,-14.634,-14.6511,-14.6564,-14.6682,-14.6761,-14.6813,-14.6899,-14.6973,-14.7074,-14.7122,-14.7236,-14.7298,-14.7386,-14.7408,-14.7335,-14.7605,-14.7509,-14.7623,-14.7623,-14.768,-14.7676,-14.8,-14.7721,-14.772,-14.772,-14.7719,0,-14.5971,-14.6077,-14.6318,-14.6417,-14.6468,-14.6579,-14.6696,-14.6798,-14.6888,-14.6908,-14.6986,-14.6978,-14.712,-14.7023,-14.722,-14.7119,-14.7181,-14.7211,-14.722,-14.7233,-14.7122,-14.7301,-14.7607,-14.764,-14.7247,-14.7244,-14.724,0,-14.5678,-14.5932,-14.5953,-14.6179,-14.6301,-14.6277,-14.64,-14.648,-14.6517,-14.6622,-14.666,-14.6778,-14.6712,-14.6753,-14.6847,-14.6889,-14.702,-14.6872,-14.702,-14.7025,-14.6998,-14.728,-14.7318,-14.7537,-14.719,-14.7195,-14.7199,0,-14.5456,-14.56,-14.5638,-14.5699,-14.5811,-14.591,-14.6052,-14.6175,-14.6245,-14.6335,-14.6453,-14.6619,-14.6576,-14.6643,-14.6646,-14.6742,-14.6932,-14.6681,-14.6683,-14.6726,-14.7167,-14.7203,-14.724,-14.6913,-14.6919,-14.6924,-14.716,0,-14.5197,-14.5327,-14.5434,-14.5566,-14.5648,-14.579,-14.5826,-14.5907,-14.5904,-14.5938,-14.611,-14.618,-14.63,-14.6349,-14.6344,-14.6554,-14.6523,-14.6474,-14.6379,-14.6564,-14.6643,-14.6675,-14.626,-14.6258,-14.6256,-14.6254,0,0,-14.4905,-14.5093,-14.5109,-14.5247,-14.5317,-14.5288,-14.5437,-14.5501,-14.5629,-14.5677,-14.5625,-14.5869,-14.5926,-14.613,-14.6191,-14.6239,-14.6279,-14.6211,-14.6476,-14.6501,-14.6524,-14.6607,-14.664,-14.625,-14.6249,-14.6248,-14.6248,0,-14.4817,-14.4884,-14.5032,-14.51,-14.5201,-14.523,-14.5265,-14.5358,-14.5386,-14.5554,-14.5523,-14.5629,-14.582,-14.5887,-14.5945,-14.6189,-14.6157,-14.6223,-14.6344,-14.6453,-14.6481,-14.6505,-14.6592,-14.6624,-14.6242,-14.6243,-14.6243,0,-14.4605,-14.4676,-14.4751,-14.4909,-14.4973,-14.5096,-14.5008,-14.5141,-14.5231,-14.5185,-14.5352,-14.5394,-14.5483,-14.5671,-14.5756,-14.5711,-14.6045,-14.5944,-14.5958,-14.5967,-14.6074,-14.6107,-14.6137,-14.5747,-14.5745,-14.5744,0,0,-14.4523,-14.4645,-14.4725,-14.4892,-14.4935,-14.4979,-14.5047,-14.505,-14.5134,-14.5167,-14.522,-14.53,-14.5411,-14.5484,-14.559,-14.5791,-14.581,-14.5881,-14.5905,-14.5924,-14.5943,-14.6055,-14.6088,-14.5737,-14.5737,-14.5736,0,0,-14.4483,-14.4585,-14.4567,-14.4766,-14.4849,-14.4936,-14.5035,-14.5015,-14.5114,-14.5101,-14.5108,-14.5129,-14.5305,-14.5346,-14.525,-14.5556,-14.5462,-14.5485,-14.5522,-14.5552,-14.5575,-14.5561,-14.5165,0,0,0,0,0,-14.4411,-14.4573,-14.4556,-14.4595,-14.4791,-14.4946,-14.4971,-14.4983,-14.4918,-14.4997,-14.5038,-14.4999,-14.5296,-14.5212,-14.5248,-14.5353,-14.5648,-14.5663,-14.5678,-14.5774,-14.5805,-14.5831,0,0,0,0,0,0,-14.4426,-14.4473,-14.4552,-14.4646,-14.469,-14.494,-14.4832,-14.484,-14.491,-14.49,-14.4993,-14.5002,-14.5012,-14.5194,-14.5226,-14.5326,-14.5154,-14.5654,-14.5667,-14.5679,-14.5785,-14.581,-14.5832,0,0,0,0,0,-14.4438,-14.4476,-14.4788,-14.4644,-14.4682,-14.4738,-14.4826,-14.4832,-14.4885,-14.4948,-14.4956,-14.4889,-14.5015,-14.5042,-14.5213,-14.5312,-14.5132,-14.5143,-14.5663,-14.5673,-14.5683,-14.5797,0,0,0,0,0,0,-14.4447,-14.4481,-14.4796,-14.4808,-14.4583,-14.4724,-14.4746,-14.4825,-14.4928,-14.4939,-14.4843,-14.4835,-14.5019,-14.5039,-14.5061,-14.5306,-14.5113,-14.5126,-14.5133,-14.5671,-14.5679,-14.5686,0,0,0,0,0,0,-14.446,-14.4491,-14.4802,-14.4725,-14.4728,-14.4711,-14.4731,-14.4876,-14.493,-14.4817,-14.4814,-14.4838,-14.4985,-14.5038,-14.5055,-14.528,-14.51,-14.5111,-14.5119,-14.5124,-14.5677,-14.5684,0,0,0,0,0,0,-14.4473,-14.45,-14.4722,-14.4725,-14.4727,-14.4863,-14.4838,-14.5038,-14.4868,-14.4813,-14.4853,-14.4846,-14.4985,-14.5001,-14.5051,-14.527,-14.5278,-14.51,-14.5108,-14.5113,-14.5117,0,0,0,0,0,0,0,-14.4484,-14.4305,-14.4725,-14.4724,-14.4726,-14.4919,-14.4923,-14.4926,-14.4867,-14.4861,-14.4855,-14.4849,-14.5033,-14.5046,-14.5059,-14.5261,0,0,-14.5099,-14.5104,0,0,0,0,0,0,0,0,-14.4294,-14.4302,-14.4726,-14.4728,-14.4731,-14.492,-14.4922,-14.4925,-14.4866,-14.4861,-14.4856,-14.4851,-14.5037,-14.5047,-14.5057,0,0,0,0,0,0,0,0,0,0,0,0,0,0,0,-14.4726,-14.4728,0,-14.492,-14.4922,-14.4924,-14.4865,-14.4861,-14.4857,-14.4853,-14.5039,-14.5048,-14.5057,0,0,0,0,0,0,0,0,0,0,0,0,0,0,0,0,0,0,0,0,0,0,0,0,0,0,0,0,0,0,0,0,0,0,0,0,0,0,0,0,0,0,0,0,0,0,0,0,0,0,0,0,0,0,0,0,0,0,0,0,0,0,0,0,0,0,0,0,0]}]]]